TimeEDT,TemperatureF,Dew PointF,Humidity,Sea Level PressureIn,VisibilityMPH,Wind Direction,Wind SpeedMPH,Gust SpeedMPH,PrecipitationIn,Events,Conditions,WindDirDegrees,DateUTC
12:53 AM,69.1,64.0,84,29.92,10.0,Calm,Calm,-,N/A,,Overcast,0,2013-07-28 04:53:00
1:53 AM,68.0,64.0,87,29.92,10.0,West,3.5,-,N/A,,Overcast,280,2013-07-28 05:53:00
2:53 AM,68.0,64.0,87,29.93,10.0,West,5.8,-,N/A,,Overcast,270,2013-07-28 06:53:00
3:53 AM,66.0,61.0,84,29.94,10.0,NW,5.8,-,N/A,,Scattered Clouds,310,2013-07-28 07:53:00
4:53 AM,64.9,57.9,78,29.95,10.0,NNW,6.9,-,N/A,,Overcast,330,2013-07-28 08:53:00
5:53 AM,63.0,55.9,78,29.97,10.0,NW,6.9,-,N/A,,Overcast,320,2013-07-28 09:53:00
6:53 AM,62.1,55.9,80,29.99,10.0,Calm,Calm,-,N/A,,Mostly Cloudy,0,2013-07-28 10:53:00
7:53 AM,61.0,54.0,78,30.02,10.0,NW,3.5,-,N/A,,Scattered Clouds,320,2013-07-28 11:53:00
8:53 AM,64.0,54.0,70,30.02,10.0,NW,5.8,-,N/A,,Clear,320,2013-07-28 12:53:00
9:53 AM,66.9,53.1,61,30.02,10.0,NNW,4.6,-,N/A,,Clear,330,2013-07-28 13:53:00
10:53 AM,69.1,52.0,54,30.01,10.0,Variable,3.5,-,N/A,,Clear,0,2013-07-28 14:53:00
11:53 AM,71.1,54.0,55,30.03,10.0,Variable,6.9,-,N/A,,Clear,0,2013-07-28 15:53:00
12:53 PM,71.1,52.0,51,30.02,10.0,WSW,5.8,-,N/A,,Partly Cloudy,240,2013-07-28 16:53:00
1:53 PM,73.9,52.0,46,30.02,10.0,WNW,8.1,-,N/A,,Clear,290,2013-07-28 17:53:00
2:53 PM,73.9,48.9,41,30.02,10.0,WSW,8.1,16.1,N/A,,Clear,250,2013-07-28 18:53:00
3:53 PM,73.9,48.0,40,30.00,10.0,WSW,10.4,-,N/A,,Clear,250,2013-07-28 19:53:00
4:53 PM,75.0,48.9,40,30.00,10.0,WNW,6.9,-,N/A,,Clear,300,2013-07-28 20:53:00
5:53 PM,75.0,48.0,38,30.01,10.0,Variable,4.6,-,N/A,,Clear,0,2013-07-28 21:53:00
6:53 PM,73.9,50.0,43,30.01,10.0,West,9.2,-,N/A,,Clear,260,2013-07-28 22:53:00
7:53 PM,72.0,50.0,46,30.03,10.0,West,6.9,-,N/A,,Clear,280,2013-07-28 23:53:00
8:53 PM,68.0,51.1,55,30.05,10.0,WNW,3.5,-,N/A,,Clear,300,2013-07-29 00:53:00
9:53 PM,66.0,51.1,59,30.07,10.0,NW,3.5,-,N/A,,Clear,310,2013-07-29 01:53:00
10:53 PM,61.0,55.0,81,30.09,10.0,Calm,Calm,-,N/A,,Clear,0,2013-07-29 02:53:00
11:53 PM,57.9,54.0,87,30.10,10.0,Calm,Calm,-,N/A,,Clear,0,2013-07-29 03:53:00